Flag for Germany Weather past 2 weeks in Schwedt/Oder, Brandenburg, Germany

Now
59 °F

Fog.


Feels Like: 60 °F
Forecast: 54 / 74 °F
Wind: 3 mph from Southwest

Location: Szczecin Airport

Current Time: Aug 30, 2014 at 1:03:05 AM

Latest Report: Aug 30, 2014 at 12:30 AM


Visibility: 3 mi

Pressure: 29.95 "Hg

Humidity: 94%

Dew point: 57 °F

Location of Schwedt/OderLocation

Historic Weather in Schwedt/Oder — Graph

°F

Schwedt/Oder temperature yesterday

Maximum temperature yesterday: 73 °F (at 12:30 PM)
Minimum temperature yesterday: 48 °F (at 2:30 AM)
Average temperature yesterday: 61 °F

Past Weeks' High & Low Weather Summary

 TemperatureHumidityPressure
High73 °F (Aug 29, 12:30 PM)100% (Aug 16, 2:30 AM)30.04 "Hg (Aug 16, 2:30 AM)
Low41 °F (Aug 26, 6:30 AM)35% (Aug 26, 4:00 PM)29.53 "Hg (Aug 18, 6:00 PM)
Average58 °F72%29.85 "Hg
* Reported Midnight between Aug 14 and Aug 15 — Midnight between Aug 29 and Aug 30, Schwedt/Oder, Weather by CustomWeather, © 2014

Note: Actual official high and low records may vary slightly from our data, if they occured in-between our weather recording intervals... More about our weather records

Advertising

Schwedt/Oder weather history for previous 24 hours

 ConditionsComfort  
Time TempWeatherWind HumidityBarometerVisibility
12:00 AM
Aug 30
61 °FPassing clouds.5 mph94%29.95 "Hg4 mi
11:30 PM
Aug 29
61 °FPassing clouds.7 mph94%29.95 "Hg4 mi
11:00 PM61 °FFog.5 mph94%29.95 "Hg3 mi
9:00 PM61 °FLight rain. Fog.7 mph100%29.95 "Hg1 mi
8:30 PM63 °FLight rain. Fog.2 mph94%29.92 "Hg2 mi
8:00 PM63 °FScattered clouds.1 mph94%29.92 "Hg4 mi
7:30 PM63 °FLight rain. Passing clouds.No wind94%29.92 "Hg5 mi
7:00 PM63 °FLight rain. Passing clouds.No wind94%29.92 "HgN/A
6:30 PM63 °FLight rain. Scattered clouds.6 mph88%29.95 "HgN/A
6:00 PM64 °FLight rain. Scattered clouds.6 mph83%29.92 "HgN/A
5:30 PM66 °FLight rain. Partly sunny.8 mph73%29.92 "HgN/A
5:00 PM70 °FPartly sunny.10 mph53%29.92 "HgN/A
4:30 PM73 °FPartly sunny.7 mph44%29.92 "HgN/A
4:00 PM73 °FScattered clouds.6 mph41%29.92 "HgN/A
3:30 PM73 °FPassing clouds.6 mph41%29.92 "HgN/A
3:00 PM73 °FPassing clouds.7 mph41%29.95 "HgN/A
2:30 PM73 °FPassing clouds.6 mph41%29.95 "HgN/A
2:00 PM73 °FPassing clouds.9 mph38%29.95 "HgN/A
1:30 PM73 °FSunny.9 mph38%29.95 "Hg10 mi
1:00 PM73 °FPassing clouds.8 mph41%29.95 "HgN/A
12:30 PM73 °FPassing clouds.8 mph38%29.95 "HgN/A
12:00 PM72 °FPassing clouds.9 mph41%29.95 "HgN/A
11:30 AM72 °FSunny.9 mph41%29.98 "Hg10 mi
11:00 AM68 °FSunny.6 mph53%29.98 "Hg10 mi
10:30 AM66 °FSunny.6 mph56%29.98 "Hg10 mi
10:00 AM66 °FSunny.6 mph56%29.98 "Hg10 mi
9:30 AM64 °FSunny.6 mph60%29.98 "Hg10 mi
9:00 AM61 °FSunny.6 mph68%29.98 "Hg10 mi
8:30 AM57 °FSunny.3 mph77%29.98 "Hg10 mi
8:00 AM54 °FSunny.5 mph82%29.98 "Hg10 mi
7:30 AM52 °FSunny.5 mph88%29.98 "Hg10 mi
7:00 AM52 °FClear.3 mph88%29.98 "Hg10 mi
6:30 AM50 °FClear.5 mph88%29.98 "Hg10 mi
6:00 AM50 °FClear.5 mph88%29.98 "Hg10 mi
5:30 AM48 °FClear.3 mph94%29.98 "Hg10 mi
5:00 AM48 °FClear.5 mph94%29.98 "Hg10 mi
4:30 AM50 °FClear.3 mph94%30.01 "Hg10 mi
4:00 AM50 °FClear.2 mph94%30.01 "Hg10 mi
3:30 AM48 °FClear.3 mph94%30.01 "Hg10 mi
3:00 AM50 °FClear.2 mph94%29.92 "Hg10 mi
2:30 AM48 °FClear.2 mph94%30.01 "Hg10 mi
2:00 AM50 °FClear.3 mph88%30.01 "Hg10 mi
1:30 AM50 °FClear.3 mph94%30.01 "Hg10 mi
1:00 AM50 °FClear.3 mph94%30.01 "Hg10 mi
Weather by CustomWeather, © 2014

See weather overviewHow to use our weather pages